Time,TemperatureF,DewpointF,PressureIn,WindDirection,WindDirectionDegrees,WindSpeedMPH,WindSpeedGustMPH,Humidity,HourlyPrecipIn,Conditions,Clouds,dailyrainin,SoftwareType,DateUTC
2013-02-04 00:05:00,35.5,25.3,30.01,SW,225,0.0,1.0,66,0.00,,,0.00,Wunderground v.1.15,2013-02-04 05:05:00,
2013-02-04 00:10:00,35.6,25.0,30.01,WNW,289,1.0,1.0,65,0.00,,,0.00,Wunderground v.1.15,2013-02-04 05:10:00,
2013-02-04 00:15:00,35.8,25.2,30.01,WNW,284,1.0,5.0,65,0.00,,,0.00,Wunderground v.1.15,2013-02-04 05:15:00,
2013-02-04 00:20:00,35.9,24.9,30.01,NW,317,1.0,1.0,64,0.00,,,0.00,Wunderground v.1.15,2013-02-04 05:20:00,
2013-02-04 00:25:00,35.7,25.1,30.02,NW,321,1.0,1.0,65,0.00,,,0.00,Wunderground v.1.15,2013-02-04 05:25:00,
2013-02-04 00:30:00,35.6,24.6,30.02,North,5,0.0,0.0,64,0.00,,,0.00,Wunderground v.1.15,2013-02-04 05:30:00,
2013-02-04 00:35:00,35.5,24.5,30.02,NNW,340,1.0,1.0,64,0.00,,,0.00,Wunderground v.1.15,2013-02-04 05:35:00,
2013-02-04 00:45:00,35.2,24.2,30.02,NNW,340,0.0,0.0,64,0.00,,,0.00,Wunderground v.1.15,2013-02-04 05:45:00,
2013-02-04 00:50:00,34.9,23.9,30.02,WNW,292,0.0,2.0,64,0.00,,,0.00,Wunderground v.1.15,2013-02-04 05:50:00,
2013-02-04 00:55:00,34.7,24.1,30.03,WNW,293,0.0,2.0,65,0.00,,,0.00,Wunderground v.1.15,2013-02-04 05:55:00,
2013-02-04 01:00:00,34.6,23.7,30.03,WNW,293,0.0,0.0,64,0.00,,,0.00,Wunderground v.1.15,2013-02-04 06:00:00,
2013-02-04 01:05:00,34.4,23.8,30.03,WSW,239,0.0,0.0,65,0.00,,,0.00,Wunderground v.1.15,2013-02-04 06:05:00,
2013-02-04 01:15:00,34.3,23.7,30.04,WSW,239,0.0,0.0,65,0.00,,,0.00,Wunderground v.1.15,2013-02-04 06:15:00,
2013-02-04 01:20:00,34.1,23.6,30.04,WSW,244,0.0,0.0,65,0.00,,,0.00,Wunderground v.1.15,2013-02-04 06:20:00,
2013-02-04 01:30:00,33.4,23.6,30.03,WSW,244,0.0,0.0,67,0.00,,,0.00,Wunderground v.1.15,2013-02-04 06:30:00,
2013-02-04 01:35:00,32.9,23.1,30.03,WSW,244,0.0,0.0,67,0.00,,,0.00,Wunderground v.1.15,2013-02-04 06:35:00,
2013-02-04 01:40:00,32.5,23.1,30.03,WSW,244,0.0,0.0,68,0.00,,,0.00,Wunderground v.1.15,2013-02-04 06:40:00,
2013-02-04 01:50:00,31.6,22.9,30.03,WSW,244,0.0,0.0,70,0.00,,,0.00,Wunderground v.1.15,2013-02-04 06:50:00,
2013-02-04 01:55:00,31.1,22.8,30.03,WSW,244,0.0,0.0,71,0.00,,,0.00,Wunderground v.1.15,2013-02-04 06:55:00,
2013-02-04 02:00:00,30.8,22.8,30.03,WSW,244,0.0,0.0,72,0.00,,,0.00,Wunderground v.1.15,2013-02-04 07:00:00,
2013-02-04 02:05:00,30.3,23.0,30.03,WSW,244,0.0,0.0,74,0.00,,,0.00,Wunderground v.1.15,2013-02-04 07:05:00,
2013-02-04 02:15:00,29.8,23.2,30.04,WSW,244,0.0,0.0,76,0.00,,,0.00,Wunderground v.1.15,2013-02-04 07:15:00,
2013-02-04 02:20:00,29.5,22.9,30.04,WSW,244,0.0,0.0,76,0.00,,,0.00,Wunderground v.1.15,2013-02-04 07:20:00,
2013-02-04 02:25:00,29.2,22.9,30.04,WSW,244,0.0,0.0,77,0.00,,,0.00,Wunderground v.1.15,2013-02-04 07:25:00,
2013-02-04 02:30:00,28.9,22.6,30.04,WSW,244,0.0,0.0,77,0.00,,,0.00,Wunderground v.1.15,2013-02-04 07:30:00,
2013-02-04 02:35:00,28.7,22.7,30.04,WSW,244,0.0,0.0,78,0.00,,,0.00,Wunderground v.1.15,2013-02-04 07:35:00,
2013-02-04 02:40:00,28.4,22.7,30.04,WSW,244,0.0,0.0,79,0.00,,,0.00,Wunderground v.1.15,2013-02-04 07:40:00,
2013-02-04 02:45:00,28.1,22.4,30.05,WSW,244,0.0,0.0,79,0.00,,,0.00,Wunderground v.1.15,2013-02-04 07:45:00,
2013-02-04 02:55:00,27.7,22.6,30.05,WSW,244,0.0,0.0,81,0.00,,,0.00,Wunderground v.1.15,2013-02-04 07:55:00,
2013-02-04 03:00:00,27.5,22.7,30.05,WSW,244,0.0,0.0,82,0.00,,,0.00,Wunderground v.1.15,2013-02-04 08:00:00,
2013-02-04 03:05:00,27.3,22.5,30.05,WSW,244,0.0,0.0,82,0.00,,,0.00,Wunderground v.1.15,2013-02-04 08:05:00,
2013-02-04 03:15:00,27.0,22.5,30.06,WSW,244,0.0,0.0,83,0.00,,,0.00,Wunderground v.1.15,2013-02-04 08:15:00,
2013-02-04 03:20:00,27.0,22.8,30.06,WSW,244,0.0,0.0,84,0.00,,,0.00,Wunderground v.1.15,2013-02-04 08:20:00,
2013-02-04 03:30:00,26.9,22.7,30.06,WSW,244,0.0,0.0,84,0.00,,,0.00,Wunderground v.1.15,2013-02-04 08:30:00,
2013-02-04 03:35:00,26.8,22.6,30.06,WSW,244,0.0,0.0,84,0.00,,,0.00,Wunderground v.1.15,2013-02-04 08:35:00,
2013-02-04 03:40:00,26.7,22.5,30.06,WSW,244,0.0,0.0,84,0.00,,,0.00,Wunderground v.1.15,2013-02-04 08:40:00,
2013-02-04 03:45:00,26.5,22.3,30.06,WSW,244,0.0,0.0,84,0.00,,,0.00,Wunderground v.1.15,2013-02-04 08:45:00,
2013-02-04 03:50:00,26.4,22.5,30.06,WSW,244,0.0,0.0,85,0.00,,,0.00,Wunderground v.1.15,2013-02-04 08:50:00,
2013-02-04 04:00:00,26.2,22.3,30.07,WSW,244,0.0,0.0,85,0.00,,,0.00,Wunderground v.1.15,2013-02-04 09:00:00,
2013-02-04 04:05:00,26.0,22.1,30.07,WSW,244,0.0,0.0,85,0.00,,,0.00,Wunderground v.1.15,2013-02-04 09:05:00,
2013-02-04 04:15:00,25.7,22.1,30.08,WSW,244,0.0,0.0,86,0.00,,,0.00,Wunderground v.1.15,2013-02-04 09:15:00,
2013-02-04 04:20:00,25.6,22.0,30.08,WSW,244,0.0,0.0,86,0.00,,,0.00,Wunderground v.1.15,2013-02-04 09:20:00,
2013-02-04 04:25:00,25.5,21.9,30.07,WSW,244,0.0,0.0,86,0.00,,,0.00,Wunderground v.1.15,2013-02-04 09:25:00,
2013-02-04 04:35:00,25.3,22.0,30.08,WSW,244,0.0,0.0,87,0.00,,,0.00,Wunderground v.1.15,2013-02-04 09:35:00,
2013-02-04 04:40:00,25.2,21.9,30.07,WSW,244,0.0,0.0,87,0.00,,,0.00,Wunderground v.1.15,2013-02-04 09:40:00,
2013-02-04 04:45:00,25.1,21.8,30.07,WSW,244,0.0,0.0,87,0.00,,,0.00,Wunderground v.1.15,2013-02-04 09:45:00,
2013-02-04 04:50:00,24.9,21.6,30.07,WSW,244,0.0,0.0,87,0.00,,,0.00,Wunderground v.1.15,2013-02-04 09:50:00,
2013-02-04 04:55:00,24.9,21.8,30.07,WSW,244,0.0,0.0,88,0.00,,,0.00,Wunderground v.1.15,2013-02-04 09:55:00,
2013-02-04 05:00:00,24.7,21.4,30.08,WSW,244,0.0,0.0,87,0.00,,,0.00,Wunderground v.1.15,2013-02-04 10:00:00,
2013-02-04 05:05:00,24.6,21.6,30.08,WSW,244,0.0,0.0,88,0.00,,,0.00,Wunderground v.1.15,2013-02-04 10:05:00,
2013-02-04 05:15:00,24.4,21.4,30.08,WSW,244,0.0,0.0,88,0.00,,,0.00,Wunderground v.1.15,2013-02-04 10:15:00,
2013-02-04 05:20:00,24.3,21.3,30.08,WSW,244,0.0,0.0,88,0.00,,,0.00,Wunderground v.1.15,2013-02-04 10:20:00,
2013-02-04 05:25:00,24.3,21.3,30.09,WSW,244,0.0,0.0,88,0.00,,,0.00,Wunderground v.1.15,2013-02-04 10:25:00,
2013-02-04 05:30:00,24.2,21.2,30.08,WSW,244,0.0,0.0,88,0.00,,,0.00,Wunderground v.1.15,2013-02-04 10:30:00,
2013-02-04 05:40:00,24.1,21.3,30.08,WSW,244,0.0,0.0,89,0.00,,,0.00,Wunderground v.1.15,2013-02-04 10:40:00,
2013-02-04 05:45:00,23.9,21.1,30.08,WSW,244,0.0,0.0,89,0.00,,,0.00,Wunderground v.1.15,2013-02-04 10:45:00,
2013-02-04 05:50:00,23.9,21.1,30.09,WSW,244,0.0,0.0,89,0.00,,,0.00,Wunderground v.1.15,2013-02-04 10:50:00,
2013-02-04 05:55:00,23.8,21.0,30.09,WSW,244,0.0,0.0,89,0.00,,,0.00,Wunderground v.1.15,2013-02-04 10:55:00,
2013-02-04 06:05:00,23.6,20.8,30.09,WSW,244,0.0,0.0,89,0.00,,,0.00,Wunderground v.1.15,2013-02-04 11:05:00,
2013-02-04 06:15:00,23.6,21.1,30.10,WSW,244,0.0,0.0,90,0.00,,,0.00,Wunderground v.1.15,2013-02-04 11:15:00,
2013-02-04 06:20:00,23.6,21.1,30.10,WSW,244,0.0,0.0,90,0.00,,,0.00,Wunderground v.1.15,2013-02-04 11:20:00,
2013-02-04 06:25:00,23.6,21.1,30.10,WSW,244,0.0,0.0,90,0.00,,,0.00,Wunderground v.1.15,2013-02-04 11:25:00,
2013-02-04 06:30:00,23.6,21.1,30.11,WSW,244,0.0,0.0,90,0.00,,,0.00,Wunderground v.1.15,2013-02-04 11:30:00,
2013-02-04 06:35:00,23.7,21.5,30.11,WSW,244,0.0,0.0,91,0.00,,,0.00,Wunderground v.1.15,2013-02-04 11:35:00,
2013-02-04 06:40:00,23.8,21.6,30.11,WSW,244,0.0,0.0,91,0.00,,,0.00,Wunderground v.1.15,2013-02-04 11:40:00,
2013-02-04 06:50:00,23.9,21.7,30.12,WSW,244,0.0,0.0,91,0.00,,,0.00,Wunderground v.1.15,2013-02-04 11:50:00,
2013-02-04 06:55:00,23.9,21.7,30.12,WSW,244,0.0,0.0,91,0.00,,,0.00,Wunderground v.1.15,2013-02-04 11:55:00,
2013-02-04 07:00:00,23.9,21.7,30.12,WSW,244,0.0,0.0,91,0.00,,,0.00,Wunderground v.1.15,2013-02-04 12:00:00,
2013-02-04 07:05:00,23.9,21.7,30.12,WSW,244,0.0,0.0,91,0.00,,,0.00,Wunderground v.1.15,2013-02-04 12:05:00,
2013-02-04 07:15:00,24.0,21.8,30.12,WSW,244,0.0,0.0,91,0.00,,,0.00,Wunderground v.1.15,2013-02-04 12:15:00,
2013-02-04 07:20:00,24.0,22.0,30.12,WSW,244,0.0,0.0,92,0.00,,,0.00,Wunderground v.1.15,2013-02-04 12:20:00,
2013-02-04 07:25:00,24.2,22.2,30.12,WSW,244,0.0,0.0,92,0.00,,,0.00,Wunderground v.1.15,2013-02-04 12:25:00,
2013-02-04 07:30:00,24.3,22.3,30.12,WSW,244,0.0,0.0,92,0.00,,,0.00,Wunderground v.1.15,2013-02-04 12:30:00,
2013-02-04 07:35:00,24.4,22.4,30.12,WSW,244,0.0,0.0,92,0.00,,,0.00,Wunderground v.1.15,2013-02-04 12:35:00,
2013-02-04 07:40:00,24.5,22.5,30.13,WSW,244,0.0,0.0,92,0.00,,,0.00,Wunderground v.1.15,2013-02-04 12:40:00,
2013-02-04 07:45:00,24.6,22.6,30.13,WSW,244,0.0,0.0,92,0.00,,,0.00,Wunderground v.1.15,2013-02-04 12:45:00,
2013-02-04 07:55:00,25.1,23.1,30.13,WSW,244,0.0,0.0,92,0.00,,,0.00,Wunderground v.1.15,2013-02-04 12:55:00,
2013-02-04 08:00:00,25.2,23.2,30.13,WSW,244,0.0,0.0,92,0.00,,,0.00,Wunderground v.1.15,2013-02-04 13:00:00,
2013-02-04 08:05:00,25.4,23.4,30.14,WSW,244,0.0,0.0,92,0.00,,,0.00,Wunderground v.1.15,2013-02-04 13:05:00,
2013-02-04 08:15:00,25.8,24.1,30.14,WSW,244,0.0,0.0,93,0.00,,,0.00,Wunderground v.1.15,2013-02-04 13:15:00,
2013-02-04 08:20:00,26.1,24.4,30.15,WSW,244,0.0,0.0,93,0.00,,,0.00,Wunderground v.1.15,2013-02-04 13:20:00,
2013-02-04 08:30:00,26.7,24.9,30.15,WSW,244,0.0,0.0,93,0.00,,,0.00,Wunderground v.1.15,2013-02-04 13:30:00,
2013-02-04 08:35:00,27.1,25.3,30.15,WSW,244,0.0,0.0,93,0.00,,,0.00,Wunderground v.1.15,2013-02-04 13:35:00,
2013-02-04 08:40:00,27.4,25.6,30.15,WSW,244,0.0,0.0,93,0.00,,,0.00,Wunderground v.1.15,2013-02-04 13:40:00,
2013-02-04 08:45:00,27.7,25.9,30.15,WSW,244,0.0,0.0,93,0.00,,,0.00,Wunderground v.1.15,2013-02-04 13:45:00,
2013-02-04 08:50:00,28.2,26.4,30.16,WSW,244,0.0,0.0,93,0.00,,,0.00,Wunderground v.1.15,2013-02-04 13:50:00,
2013-02-04 08:55:00,28.8,26.8,30.16,WSW,244,0.0,0.0,92,0.00,,,0.00,Wunderground v.1.15,2013-02-04 13:55:00,
2013-02-04 09:05:00,29.8,27.2,30.16,WSW,244,0.0,0.0,90,0.00,,,0.00,Wunderground v.1.15,2013-02-04 14:05:00,
2013-02-04 09:15:00,31.2,27.2,30.16,WSW,246,0.0,0.0,85,0.00,,,0.00,Wunderground v.1.15,2013-02-04 14:15:00,
2013-02-04 09:20:00,31.9,27.3,30.16,West,265,0.0,0.0,83,0.00,,,0.00,Wunderground v.1.15,2013-02-04 14:20:00,
2013-02-04 09:25:00,32.5,27.3,30.17,West,265,0.0,0.0,81,0.00,,,0.00,Wunderground v.1.15,2013-02-04 14:25:00,
2013-02-04 09:30:00,33.2,27.1,30.17,West,268,0.0,1.0,78,0.00,,,0.00,Wunderground v.1.15,2013-02-04 14:30:00,
2013-02-04 09:40:00,34.6,24.8,30.16,SSW,211,1.0,1.0,67,0.00,,,0.00,Wunderground v.1.15,2013-02-04 14:40:00,
2013-02-04 09:45:00,35.2,24.6,30.16,WNW,289,1.0,1.0,65,0.00,,,0.00,Wunderground v.1.15,2013-02-04 14:45:00,
2013-02-04 09:50:00,35.7,24.7,30.16,WNW,291,1.0,1.0,64,0.00,,,0.00,Wunderground v.1.15,2013-02-04 14:50:00,
2013-02-04 09:55:00,36.1,24.3,30.15,WNW,300,0.0,2.0,62,0.00,,,0.00,Wunderground v.1.15,2013-02-04 14:55:00,
2013-02-04 10:00:00,36.3,24.5,30.15,South,177,1.0,1.0,62,0.00,,,0.00,Wunderground v.1.15,2013-02-04 15:00:00,
2013-02-04 10:05:00,36.5,24.3,30.16,WNW,300,0.0,1.0,61,0.00,,,0.00,Wunderground v.1.15,2013-02-04 15:05:00,
2013-02-04 10:15:00,37.0,24.0,30.16,West,279,1.0,1.0,59,0.00,,,0.00,Wunderground v.1.15,2013-02-04 15:15:00,
2013-02-04 10:20:00,37.1,23.7,30.16,SSE,158,0.0,0.0,58,0.00,,,0.00,Wunderground v.1.15,2013-02-04 15:20:00,
2013-02-04 10:25:00,37.2,22.9,30.16,West,277,1.0,1.0,56,0.00,,,0.00,Wunderground v.1.15,2013-02-04 15:25:00,
2013-02-04 10:30:00,37.1,22.8,30.16,WNW,298,1.0,1.0,56,0.00,,,0.00,Wunderground v.1.15,2013-02-04 15:30:00,
2013-02-04 10:35:00,37.3,23.0,30.16,South,180,0.0,1.0,56,0.00,,,0.00,Wunderground v.1.15,2013-02-04 15:35:00,
2013-02-04 10:45:00,37.4,23.1,30.17,North,355,1.0,1.0,56,0.00,,,0.00,Wunderground v.1.15,2013-02-04 15:45:00,
2013-02-04 10:50:00,37.4,22.7,30.17,SE,146,2.0,2.0,55,0.00,,,0.00,Wunderground v.1.15,2013-02-04 15:50:00,
2013-02-04 10:55:00,37.5,22.8,30.17,WNW,298,1.0,2.0,55,0.00,,,0.00,Wunderground v.1.15,2013-02-04 15:55:00,
2013-02-04 11:00:00,37.7,23.4,30.17,NNW,332,1.0,1.0,56,0.00,,,0.00,Wunderground v.1.15,2013-02-04 16:00:00,
2013-02-04 11:05:00,38.1,24.2,30.17,SSW,209,1.0,1.0,57,0.00,,,0.00,Wunderground v.1.15,2013-02-04 16:05:00,
2013-02-04 11:15:00,38.6,23.8,30.17,NW,318,1.0,1.0,55,0.00,,,0.00,Wunderground v.1.15,2013-02-04 16:15:00,
2013-02-04 11:20:00,38.8,24.0,30.17,WSW,250,1.0,2.0,55,0.00,,,0.00,Wunderground v.1.15,2013-02-04 16:20:00,
2013-02-04 11:25:00,39.0,23.7,30.16,South,172,2.0,2.0,54,0.00,,,0.00,Wunderground v.1.15,2013-02-04 16:25:00,
2013-02-04 11:30:00,39.1,23.4,30.17,SE,124,2.0,2.0,53,0.00,,,0.00,Wunderground v.1.15,2013-02-04 16:30:00,
2013-02-04 11:35:00,39.3,23.6,30.16,South,169,2.0,2.0,53,0.00,,,0.00,Wunderground v.1.15,2013-02-04 16:35:00,
2013-02-04 11:40:00,39.5,23.8,30.16,WNW,292,1.0,1.0,53,0.00,,,0.00,Wunderground v.1.15,2013-02-04 16:40:00,
2013-02-04 11:50:00,40.3,23.1,30.16,WNW,298,1.0,4.0,50,0.00,,,0.00,Wunderground v.1.15,2013-02-04 16:50:00,
2013-02-04 11:55:00,40.5,22.8,30.15,SSE,149,2.0,4.0,49,0.00,,,0.00,Wunderground v.1.15,2013-02-04 16:55:00,
2013-02-04 12:00:00,40.5,22.8,30.14,East,93,2.0,2.0,49,0.00,,,0.00,Wunderground v.1.15,2013-02-04 17:00:00,
2013-02-04 12:05:00,41.0,22.8,30.14,NW,316,1.0,2.0,48,0.00,,,0.00,Wunderground v.1.15,2013-02-04 17:05:00,
2013-02-04 12:15:00,42.1,23.3,30.14,SSW,209,1.0,1.0,47,0.00,,,0.00,Wunderground v.1.15,2013-02-04 17:15:00,
2013-02-04 12:25:00,42.8,24.4,30.14,SSW,192,1.0,1.0,48,0.00,,,0.00,Wunderground v.1.15,2013-02-04 17:25:00,
2013-02-04 12:30:00,43.2,24.3,30.14,SE,145,1.0,2.0,47,0.00,,,0.00,Wunderground v.1.15,2013-02-04 17:30:00,
2013-02-04 12:35:00,43.7,23.7,30.13,SSE,155,1.0,2.0,45,0.00,,,0.00,Wunderground v.1.15,2013-02-04 17:35:00,
2013-02-04 12:40:00,44.0,24.5,30.13,WNW,292,1.0,1.0,46,0.00,,,0.00,Wunderground v.1.15,2013-02-04 17:40:00,
2013-02-04 12:45:00,44.1,25.1,30.14,South,177,1.0,1.0,47,0.00,,,0.00,Wunderground v.1.15,2013-02-04 17:45:00,
2013-02-04 12:55:00,44.2,23.6,30.13,WNW,300,2.0,2.0,44,0.00,,,0.00,Wunderground v.1.15,2013-02-04 17:55:00,
2013-02-04 13:00:00,44.3,23.7,30.13,SSW,211,2.0,2.0,44,0.00,,,0.00,Wunderground v.1.15,2013-02-04 18:00:00,
2013-02-04 13:05:00,44.7,24.1,30.12,WNW,302,2.0,2.0,44,0.00,,,0.00,Wunderground v.1.15,2013-02-04 18:05:00,
2013-02-04 13:15:00,45.3,24.6,30.11,WSW,240,1.0,4.0,44,0.00,,,0.00,Wunderground v.1.15,2013-02-04 18:15:00,
2013-02-04 13:20:00,45.4,24.2,30.10,NW,315,2.0,2.0,43,0.00,,,0.00,Wunderground v.1.15,2013-02-04 18:20:00,
2013-02-04 13:30:00,45.0,24.4,30.09,WNW,300,2.0,2.0,44,0.00,,,0.00,Wunderground v.1.15,2013-02-04 18:30:00,
2013-02-04 13:35:00,45.0,24.4,30.09,WNW,300,1.0,2.0,44,0.00,,,0.00,Wunderground v.1.15,2013-02-04 18:35:00,
2013-02-04 13:40:00,45.2,25.1,30.09,SE,132,0.0,2.0,45,0.00,,,0.00,Wunderground v.1.15,2013-02-04 18:40:00,
2013-02-04 13:45:00,45.6,23.8,30.09,NW,323,1.0,2.0,42,0.00,,,0.00,Wunderground v.1.15,2013-02-04 18:45:00,
2013-02-04 13:50:00,45.5,23.7,30.08,NNW,328,1.0,1.0,42,0.00,,,0.00,Wunderground v.1.15,2013-02-04 18:50:00,
2013-02-04 13:55:00,45.6,24.9,30.08,NNW,328,0.0,1.0,44,0.00,,,0.00,Wunderground v.1.15,2013-02-04 18:55:00,
2013-02-04 14:00:00,45.6,23.8,30.09,SSW,200,1.0,1.0,42,0.00,,,0.00,Wunderground v.1.15,2013-02-04 19:00:00,
2013-02-04 14:05:00,45.3,23.5,30.09,NW,313,1.0,1.0,42,0.00,,,0.00,Wunderground v.1.15,2013-02-04 19:05:00,
2013-02-04 14:15:00,45.2,24.0,30.08,NW,307,0.0,1.0,43,0.00,,,0.00,Wunderground v.1.15,2013-02-04 19:15:00,
2013-02-04 14:20:00,45.2,24.6,30.08,NW,307,0.0,0.0,44,0.00,,,0.00,Wunderground v.1.15,2013-02-04 19:20:00,
2013-02-04 14:25:00,45.4,24.2,30.08,NW,307,0.0,0.0,43,0.00,,,0.00,Wunderground v.1.15,2013-02-04 19:25:00,
2013-02-04 14:35:00,45.8,24.0,30.09,NW,305,0.0,1.0,42,0.00,,,0.00,Wunderground v.1.15,2013-02-04 19:35:00,
2013-02-04 14:40:00,45.8,23.4,30.09,NW,304,1.0,1.0,41,0.00,,,0.00,Wunderground v.1.15,2013-02-04 19:40:00,
2013-02-04 14:45:00,46.1,24.8,30.09,SW,225,0.0,1.0,43,0.00,,,0.00,Wunderground v.1.15,2013-02-04 19:45:00,
2013-02-04 14:50:00,46.4,24.5,30.09,West,261,0.0,0.0,42,0.00,,,0.00,Wunderground v.1.15,2013-02-04 19:50:00,
2013-02-04 14:55:00,46.8,25.5,30.09,South,171,1.0,1.0,43,0.00,,,0.00,Wunderground v.1.15,2013-02-04 19:55:00,
2013-02-04 15:00:00,47.1,25.7,30.09,West,261,1.0,1.0,43,0.00,,,0.00,Wunderground v.1.15,2013-02-04 20:00:00,
2013-02-04 15:05:00,47.7,25.7,30.09,East,101,1.0,1.0,42,0.00,,,0.00,Wunderground v.1.15,2013-02-04 20:05:00,
2013-02-04 15:15:00,48.3,25.1,30.08,SE,143,1.0,4.0,40,0.00,,,0.00,Wunderground v.1.15,2013-02-04 20:15:00,
2013-02-04 15:20:00,48.3,25.1,30.07,SSE,151,1.0,1.0,40,0.00,,,0.00,Wunderground v.1.15,2013-02-04 20:20:00,
2013-02-04 15:25:00,48.5,25.2,30.07,WNW,294,2.0,2.0,40,0.00,,,0.00,Wunderground v.1.15,2013-02-04 20:25:00,
2013-02-04 15:30:00,48.8,25.5,30.07,WSW,257,1.0,1.0,40,0.00,,,0.00,Wunderground v.1.15,2013-02-04 20:30:00,
2013-02-04 15:35:00,49.0,25.1,30.07,SW,222,1.0,2.0,39,0.00,,,0.00,Wunderground v.1.15,2013-02-04 20:35:00,
2013-02-04 15:45:00,49.0,25.7,30.07,SW,225,1.0,2.0,40,0.00,,,0.00,Wunderground v.1.15,2013-02-04 20:45:00,
2013-02-04 15:50:00,48.8,25.5,30.07,South,191,2.0,2.0,40,0.00,,,0.00,Wunderground v.1.15,2013-02-04 20:50:00,
2013-02-04 15:55:00,48.7,26.0,30.07,SW,227,1.0,2.0,41,0.00,,,0.00,Wunderground v.1.15,2013-02-04 20:55:00,
2013-02-04 16:00:00,48.7,26.6,30.07,SW,227,1.0,2.0,42,0.00,,,0.00,Wunderground v.1.15,2013-02-04 21:00:00,
2013-02-04 16:05:00,48.4,25.8,30.07,SE,128,1.0,2.0,41,0.00,,,0.00,Wunderground v.1.15,2013-02-04 21:05:00,
2013-02-04 16:15:00,47.7,26.3,30.06,South,181,1.0,2.0,43,0.00,,,0.00,Wunderground v.1.15,2013-02-04 21:15:00,
2013-02-04 16:20:00,47.5,26.1,30.06,SSW,199,1.0,1.0,43,0.00,,,0.00,Wunderground v.1.15,2013-02-04 21:20:00,
2013-02-04 16:25:00,47.3,25.9,30.06,SSE,165,0.0,1.0,43,0.00,,,0.00,Wunderground v.1.15,2013-02-04 21:25:00,
2013-02-04 16:30:00,47.2,25.8,30.06,SSE,165,1.0,1.0,43,0.00,,,0.00,Wunderground v.1.15,2013-02-04 21:30:00,
2013-02-04 16:35:00,47.1,25.7,30.05,SSW,197,1.0,1.0,43,0.00,,,0.00,Wunderground v.1.15,2013-02-04 21:35:00,
2013-02-04 16:40:00,46.9,26.6,30.05,South,177,1.0,2.0,45,0.00,,,0.00,Wunderground v.1.15,2013-02-04 21:40:00,
2013-02-04 16:50:00,46.7,25.9,30.05,South,185,0.0,0.0,44,0.00,,,0.00,Wunderground v.1.15,2013-02-04 21:50:00,
2013-02-04 16:55:00,46.6,26.4,30.05,South,185,0.0,0.0,45,0.00,,,0.00,Wunderground v.1.15,2013-02-04 21:55:00,
2013-02-04 17:00:00,46.5,26.3,30.05,South,185,0.0,0.0,45,0.00,,,0.00,Wunderground v.1.15,2013-02-04 22:00:00,
2013-02-04 17:05:00,46.3,26.6,30.05,South,185,0.0,0.0,46,0.00,,,0.00,Wunderground v.1.15,2013-02-04 22:05:00,
2013-02-04 17:15:00,46.1,26.4,30.05,SSW,213,0.0,0.0,46,0.00,,,0.00,Wunderground v.1.15,2013-02-04 22:15:00,
2013-02-04 17:20:00,45.9,26.8,30.05,SSW,213,0.0,0.0,47,0.00,,,0.00,Wunderground v.1.15,2013-02-04 22:20:00,
2013-02-04 17:25:00,45.8,26.2,30.05,SW,229,0.0,0.0,46,0.00,,,0.00,Wunderground v.1.15,2013-02-04 22:25:00,
2013-02-04 17:30:00,45.6,27.0,30.04,SW,229,0.0,0.0,48,0.00,,,0.00,Wunderground v.1.15,2013-02-04 22:30:00,
2013-02-04 17:35:00,45.5,26.4,30.04,SW,229,0.0,0.0,47,0.00,,,0.00,Wunderground v.1.15,2013-02-04 22:35:00,
2013-02-04 17:40:00,45.2,26.7,30.04,SW,229,0.0,0.0,48,0.00,,,0.00,Wunderground v.1.15,2013-02-04 22:40:00,
2013-02-04 17:45:00,45.0,27.0,30.04,SW,229,0.0,0.0,49,0.00,,,0.00,Wunderground v.1.15,2013-02-04 22:45:00,
2013-02-04 17:55:00,44.5,27.0,30.04,SW,229,0.0,0.0,50,0.00,,,0.00,Wunderground v.1.15,2013-02-04 22:55:00,
2013-02-04 18:00:00,44.3,26.3,30.04,SW,229,0.0,0.0,49,0.00,,,0.00,Wunderground v.1.15,2013-02-04 23:00:00,
2013-02-04 18:05:00,44.0,27.5,30.04,SW,229,0.0,0.0,52,0.00,,,0.00,Wunderground v.1.15,2013-02-04 23:05:00,
2013-02-04 18:15:00,43.6,27.6,30.04,SW,229,0.0,0.0,53,0.00,,,0.00,Wunderground v.1.15,2013-02-04 23:15:00,
2013-02-04 18:25:00,43.0,26.6,30.04,SW,229,0.0,0.0,52,0.00,,,0.00,Wunderground v.1.15,2013-02-04 23:25:00,
2013-02-04 18:30:00,42.9,26.5,30.05,SW,229,0.0,0.0,52,0.00,,,0.00,Wunderground v.1.15,2013-02-04 23:30:00,
2013-02-04 18:35:00,42.8,26.8,30.04,SW,229,0.0,0.0,53,0.00,,,0.00,Wunderground v.1.15,2013-02-04 23:35:00,
2013-02-04 18:40:00,42.7,26.7,30.05,SW,229,0.0,0.0,53,0.00,,,0.00,Wunderground v.1.15,2013-02-04 23:40:00,
2013-02-04 18:45:00,42.7,26.7,30.05,SW,229,0.0,0.0,53,0.00,,,0.00,Wunderground v.1.15,2013-02-04 23:45:00,
2013-02-04 18:50:00,42.7,27.2,30.05,SW,229,0.0,0.0,54,0.00,,,0.00,Wunderground v.1.15,2013-02-04 23:50:00,
2013-02-04 19:00:00,42.9,26.9,30.05,SW,229,0.0,0.0,53,0.00,,,0.00,Wunderground v.1.15,2013-02-05 00:00:00,
2013-02-04 19:05:00,43.0,27.5,30.04,SW,229,0.0,0.0,54,0.00,,,0.00,Wunderground v.1.15,2013-02-05 00:05:00,
2013-02-04 19:15:00,43.0,27.5,30.05,SW,229,0.0,0.0,54,0.00,,,0.00,Wunderground v.1.15,2013-02-05 00:15:00,
2013-02-04 19:20:00,43.0,27.5,30.05,SSW,205,0.0,0.0,54,0.00,,,0.00,Wunderground v.1.15,2013-02-05 00:20:00,
2013-02-04 19:25:00,42.9,27.4,30.05,SSW,205,0.0,0.0,54,0.00,,,0.00,Wunderground v.1.15,2013-02-05 00:25:00,
2013-02-04 19:30:00,42.9,27.4,30.05,SSW,205,0.0,0.0,54,0.00,,,0.00,Wunderground v.1.15,2013-02-05 00:30:00,
2013-02-04 19:40:00,42.9,27.8,30.05,SSW,205,0.0,0.0,55,0.00,,,0.00,Wunderground v.1.15,2013-02-05 00:40:00,
2013-02-04 19:45:00,42.9,27.8,30.05,WSW,250,0.0,0.0,55,0.00,,,0.00,Wunderground v.1.15,2013-02-05 00:45:00,
2013-02-04 19:50:00,43.0,27.5,30.05,WSW,243,0.0,0.0,54,0.00,,,0.00,Wunderground v.1.15,2013-02-05 00:50:00,
2013-02-04 19:55:00,43.0,27.5,30.05,WSW,243,0.0,0.0,54,0.00,,,0.00,Wunderground v.1.15,2013-02-05 00:55:00,
2013-02-04 20:05:00,42.9,27.8,30.05,SSW,198,0.0,0.0,55,0.00,,,0.00,Wunderground v.1.15,2013-02-05 01:05:00,
2013-02-04 20:15:00,42.6,27.5,30.05,SSW,197,0.0,1.0,55,0.00,,,0.00,Wunderground v.1.15,2013-02-05 01:15:00,
2013-02-04 20:20:00,42.5,27.5,30.04,SSE,147,0.0,0.0,55,0.00,,,0.00,Wunderground v.1.15,2013-02-05 01:20:00,
2013-02-04 20:25:00,42.5,27.9,30.05,SSE,149,0.0,0.0,56,0.00,,,0.00,Wunderground v.1.15,2013-02-05 01:25:00,
2013-02-04 20:30:00,42.4,27.8,30.05,SSE,149,0.0,0.0,56,0.00,,,0.00,Wunderground v.1.15,2013-02-05 01:30:00,
2013-02-04 20:40:00,42.0,27.4,30.05,SSE,151,0.0,0.0,56,0.00,,,0.00,Wunderground v.1.15,2013-02-05 01:40:00,
2013-02-04 20:45:00,41.8,27.7,30.05,SSE,151,0.0,0.0,57,0.00,,,0.00,Wunderground v.1.15,2013-02-05 01:45:00,
2013-02-04 20:50:00,41.6,27.5,30.06,SW,216,0.0,0.0,57,0.00,,,0.00,Wunderground v.1.15,2013-02-05 01:50:00,
2013-02-04 20:55:00,41.6,27.5,30.05,SSW,198,0.0,0.0,57,0.00,,,0.00,Wunderground v.1.15,2013-02-05 01:55:00,
2013-02-04 21:00:00,41.5,27.4,30.05,SSW,198,0.0,0.0,57,0.00,,,0.00,Wunderground v.1.15,2013-02-05 02:00:00,
2013-02-04 21:05:00,41.4,27.3,30.05,SSW,198,0.0,0.0,57,0.00,,,0.00,Wunderground v.1.15,2013-02-05 02:05:00,
2013-02-04 21:15:00,41.2,27.5,30.05,SSE,160,0.0,1.0,58,0.00,,,0.00,Wunderground v.1.15,2013-02-05 02:15:00,
2013-02-04 21:20:00,41.1,27.4,30.05,SSE,161,0.0,0.0,58,0.00,,,0.00,Wunderground v.1.15,2013-02-05 02:20:00,
2013-02-04 21:25:00,41.0,27.3,30.05,SSE,160,0.0,0.0,58,0.00,,,0.00,Wunderground v.1.15,2013-02-05 02:25:00,
2013-02-04 21:30:00,41.0,27.3,30.05,SSE,160,0.0,0.0,58,0.00,,,0.00,Wunderground v.1.15,2013-02-05 02:30:00,
2013-02-04 21:35:00,40.8,27.6,30.05,SSE,161,0.0,0.0,59,0.00,,,0.00,Wunderground v.1.15,2013-02-05 02:35:00,
2013-02-04 21:40:00,40.7,27.9,30.05,SSE,160,0.0,0.0,60,0.00,,,0.00,Wunderground v.1.15,2013-02-05 02:40:00,
2013-02-04 21:50:00,40.5,27.7,30.05,SSE,161,0.0,0.0,60,0.00,,,0.00,Wunderground v.1.15,2013-02-05 02:50:00,
2013-02-04 21:55:00,40.3,27.9,30.05,SSE,160,0.0,0.0,61,0.00,,,0.00,Wunderground v.1.15,2013-02-05 02:55:00,
2013-02-04 22:00:00,40.1,27.7,30.05,SSE,160,0.0,0.0,61,0.00,,,0.00,Wunderground v.1.15,2013-02-05 03:00:00,
2013-02-04 22:05:00,40.0,27.6,30.04,SSE,160,0.0,0.0,61,0.00,,,0.00,Wunderground v.1.15,2013-02-05 03:05:00,
2013-02-04 22:15:00,39.9,27.9,30.04,SSE,161,0.0,0.0,62,0.00,,,0.00,Wunderground v.1.15,2013-02-05 03:15:00,
2013-02-04 22:20:00,39.8,28.2,30.05,SSE,160,0.0,0.0,63,0.00,,,0.00,Wunderground v.1.15,2013-02-05 03:20:00,
2013-02-04 22:25:00,39.6,28.0,30.05,SSE,160,0.0,0.0,63,0.00,,,0.00,Wunderground v.1.15,2013-02-05 03:25:00,
2013-02-04 22:30:00,39.5,27.9,30.04,SSE,160,0.0,0.0,63,0.00,,,0.00,Wunderground v.1.15,2013-02-05 03:30:00,
2013-02-04 22:35:00,39.2,28.0,30.04,SSE,160,0.0,0.0,64,0.00,,,0.00,Wunderground v.1.15,2013-02-05 03:35:00,
2013-02-04 22:40:00,39.0,27.8,30.05,SSE,160,0.0,0.0,64,0.00,,,0.00,Wunderground v.1.15,2013-02-05 03:40:00,
2013-02-04 22:45:00,38.8,28.0,30.05,SSE,160,0.0,0.0,65,0.00,,,0.00,Wunderground v.1.15,2013-02-05 03:45:00,
2013-02-04 22:55:00,38.6,28.2,30.05,SSE,161,0.0,0.0,66,0.00,,,0.00,Wunderground v.1.15,2013-02-05 03:55:00,
2013-02-04 23:00:00,38.6,27.8,30.05,SSE,161,0.0,0.0,65,0.00,,,0.00,Wunderground v.1.15,2013-02-05 04:00:00,
2013-02-04 23:05:00,38.6,28.2,30.05,SSE,160,0.0,0.0,66,0.00,,,0.00,Wunderground v.1.15,2013-02-05 04:05:00,
2013-02-04 23:15:00,38.9,28.5,30.04,ESE,108,0.0,0.0,66,0.00,,,0.00,Wunderground v.1.15,2013-02-05 04:15:00,
2013-02-04 23:20:00,38.9,28.1,30.04,ESE,108,0.0,0.0,65,0.00,,,0.00,Wunderground v.1.15,2013-02-05 04:20:00,
2013-02-04 23:25:00,38.9,28.1,30.04,ESE,108,0.0,0.0,65,0.00,,,0.00,Wunderground v.1.15,2013-02-05 04:25:00,
2013-02-04 23:30:00,38.9,28.1,30.04,ESE,108,0.0,0.0,65,0.00,,,0.00,Wunderground v.1.15,2013-02-05 04:30:00,
2013-02-04 23:35:00,38.9,28.1,30.04,ESE,108,0.0,0.0,65,0.00,,,0.00,Wunderground v.1.15,2013-02-05 04:35:00,
2013-02-04 23:40:00,38.8,28.0,30.04,ESE,108,0.0,0.0,65,0.00,,,0.00,Wunderground v.1.15,2013-02-05 04:40:00,
2013-02-04 23:45:00,38.7,28.3,30.03,ESE,108,0.0,0.0,66,0.00,,,0.00,Wunderground v.1.15,2013-02-05 04:45:00,
2013-02-04 23:50:00,38.4,28.4,30.04,ESE,108,0.0,0.0,67,0.00,,,0.00,Wunderground v.1.15,2013-02-05 04:50:00,